Theta_e
308 307 307 307 307 306 306 306 306 306 306 305 305 304 304 304 303 304 304 303 303 302 302 302 302 302 301 301 301 301 301 301 301 301 301 301 301 301 301 301 300 301 301 302 303 304 304 303 304 305 306 305 306 307 308 309 310 309 310 310 309 310 311 311 309 311 319 330 330 329 331 333 332 334 330 330 331 332 327 333 333 333 332 332 329
306 305 306 306 306 306 306 306 305 305 304 304 304 303 303 303 303 303 303 303 303 302 301 302 302 301 301 300 300 300 300 300 300 300 300 300 300 300 300 300 300 300 301 300 301 303 303 302 302 303 304 303 304 305 306 306 306 306 307 307 306 307 309 308 308 308 310 316 323 330 330 330 326 333 329 329 331 332 331 331 332 333 332 332 333
305 305 305 305 305 305 305 305 304 304 303 303 303 303 303 303 303 302 301 301 302 302 301 301 301 300 300 300 300 300 300 300 300 300 299 299 299 300 300 300 300 300 300 300 300 301 301 301 301 302 302 302 303 304 305 304 304 304 304 305 304 305 305 306 305 304 305 308 314 319 326 329 327 328 330 331 330 332 332 332 330 331 332 333 332
304 304 304 304 305 305 304 303 303 303 302 302 302 303 303 302 302 301 301 301 300 301 301 300 300 300 299 299 299 299 299 299 299 300 299 299 299 299 300 300 300 300 300 300 300 300 300 300 300 301 301 300 301 302 303 303 302 302 303 303 304 303 303 303 303 302 304 305 310 313 319 325 328 329 329 329 330 331 331 332 333 330 331 331 332
304 304 304 304 304 304 303 303 303 302 302 302 302 302 302 302 302 301 301 300 300 300 300 301 300 299 299 299 299 299 300 299 299 298 299 299 299 299 300 300 300 300 300 300 301 300 300 300 300 300 300 299 301 300 301 301 301 301 300 301 301 301 302 301 301 302 302 302 305 311 316 321 328 330 330 326 326 328 330 331 331 331 331 332 332
305 304 304 303 303 303 303 303 302 302 302 302 302 302 302 301 301 301 300 300 300 300 300 299 299 298 298 299 299 299 299 299 298 298 298 299 299 299 299 300 300 300 300 300 300 300 300 299 300 299 299 299 299 299 299 299 299 299 299 299 299 299 299 300 301 301 300 301 304 305 311 315 320 326 328 328 325 324 325 328 330 331 330 328 330
304 303 303 303 302 302 302 302 302 302 302 302 302 301 301 301 300 300 300 299 299 299 299 299 299 299 298 299 299 299 298 298 298 298 298 298 298 298 298 299 299 300 300 299 300 300 300 300 300 299 299 299 299 299 298 298 298 298 298 298 298 297 298 299 299 300 300 300 301 305 308 313 317 319 326 329 328 326 323 322 323 329 332 327 325
304 303 302 302 301 301 302 302 302 301 302 301 301 301 300 300 300 300 300 299 299 298 298 298 299 299 299 299 299 299 299 298 298 297 297 298 298 298 298 298 298 299 299 299 299 299 299 299 300 300 300 300 299 299 299 297 297 297 297 297 297 296 296 296 297 298 299 299 300 301 305 308 312 318 324 326 324 324 325 323 320 323 326 327 327
303 302 301 301 301 301 301 302 302 302 301 301 301 300 300 300 300 299 299 299 299 299 299 298 298 298 298 298 298 299 298 297 297 296 296 297 298 298 298 298 298 298 298 298 299 299 299 299 300 300 300 301 299 299 299 298 297 295 296 296 296 295 295 296 296 296 297 299 299 302 303 305 309 313 316 319 320 321 324 324 322 322 324 324 325
302 301 300 300 301 301 301 302 301 302 301 301 300 300 300 300 300 299 298 299 299 299 299 298 298 297 297 298 298 298 298 297 295 294 294 295 297 298 298 298 298 298 298 298 298 298 298 298 299 299 298 298 298 297 296 296 296 296 295 295 294 294 294 294 295 296 296 296 298 300 301 302 305 309 312 318 324 326 324 323 320 322 322 321 322
302 300 300 300 301 301 301 301 301 301 301 301 300 300 299 300 299 299 299 299 299 299 298 298 297 298 297 297 297 298 297 296 292 292 292 292 296 298 298 298 299 298 298 297 297 297 298 298 298 298 298 298 298 296 295 294 293 293 294 294 295 294 294 293 294 295 295 296 297 298 299 300 303 307 310 314 319 321 321 323 322 321 319 317 316
300 300 300 300 300 300 301 301 301 301 301 300 300 300 300 299 299 299 299 299 299 299 298 298 297 298 298 297 297 297 298 294 291 292 292 291 293 296 299 298 298 298 298 297 297 297 296 296 297 297 297 297 297 296 295 294 293 292 292 292 293 293 293 294 294 294 294 295 295 296 298 299 301 305 307 312 315 319 321 322 321 320 319 318 319
300 300 300 300 300 301 301 300 300 300 300 300 300 300 299 298 298 298 298 299 299 298 297 297 297 297 297 297 297 297 297 293 291 291 291 291 291 294 298 298 297 297 297 297 297 296 296 295 295 296 296 298 298 295 294 294 294 293 293 294 294 294 293 292 293 296 296 295 295 295 297 298 299 302 307 309 314 316 319 320 321 321 321 320 321
298 299 299 300 300 301 301 300 300 300 300 300 299 298 298 298 299 299 298 298 298 297 297 297 297 297 297 297 297 297 297 293 291 291 291 291 291 293 299 298 298 298 297 297 296 296 295 294 294 294 295 295 295 294 293 293 293 293 294 295 296 296 295 294 294 293 295 296 296 295 298 300 299 301 305 306 307 309 314 317 320 320 320 320 323
300 300 300 300 301 301 300 300 300 300 300 299 299 298 298 298 298 298 298 297 297 297 296 296 296 297 297 297 297 296 297 292 291 291 291 291 291 294 298 298 297 298 297 297 297 296 296 295 295 294 294 295 295 293 292 292 292 292 293 294 295 296 297 297 298 298 298 298 297 297 298 300 301 302 304 305 307 309 312 315 319 321 322 323 322
300 300 300 300 300 301 300 300 300 299 299 298 298 297 298 298 298 298 298 298 298 297 297 297 296 296 296 297 297 296 297 292 291 291 291 290 292 297 297 297 296 296 296 297 297 296 296 295 295 294 294 294 294 291 291 293 293 292 292 293 293 294 296 296 295 294 296 296 297 297 298 299 298 301 302 304 305 307 308 312 318 320 319 318 316
299 300 300 300 300 300 300 299 299 298 298 298 297 298 297 298 298 299 298 297 297 297 297 296 296 296 296 296 296 296 297 294 291 291 291 290 293 297 297 296 296 295 295 296 296 296 296 296 295 294 294 295 293 290 290 291 292 291 291 291 292 293 293 296 294 293 292 292 292 292 292 292 293 293 293 294 297 300 301 299 301 314 316 315 316
299 300 300 300 300 300 300 299 298 298 298 297 297 298 299 299 298 299 297 297 296 297 297 296 296 296 296 296 296 296 297 296 291 291 291 290 293 296 296 295 295 295 295 296 296 296 296 295 297 295 294 294 291 290 290 292 292 291 291 290 290 290 291 293 293 293 293 293 293 293 292 292 292 293 293 293 293 296 299 296 301 312 315 315 314
299 299 300 300 300 300 300 299 299 298 298 298 299 298 298 298 298 299 298 298 298 298 297 296 296 296 296 296 295 296 297 296 293 291 290 291 293 296 295 295 294 294 294 295 296 296 295 296 295 295 294 292 289 290 289 292 292 291 291 290 289 288 290 291 290 291 293 294 296 298 299 299 301 301 299 295 294 296 300 300 303 310 315 316 316
300 301 301 301 301 301 301 300 300 299 298 299 300 299 299 299 299 299 298 298 297 298 297 297 296 296 296 296 297 297 296 297 296 291 291 291 291 295 296 294 293 294 294 294 294 295 295 295 295 292 290 290 289 289 289 290 292 292 291 289 287 287 290 290 292 292 292 293 294 297 299 302 304 305 305 306 305 304 303 304 306 310 316 317 317
301 301 301 301 300 300 300 300 300 300 301 300 300 300 300 299 299 299 298 298 298 298 298 298 297 296 296 297 296 297 297 296 296 291 291 291 290 292 296 295 294 294 294 294 294 293 294 294 295 293 290 289 289 289 290 290 290 293 292 289 288 288 289 290 291 292 291 292 294 296 298 300 302 305 306 307 310 311 309 306 310 312 316 318 317
302 301 300 300 300 300 300 301 302 301 301 301 300 299 300 300 300 299 298 298 298 298 298 297 297 296 297 296 297 297 297 295 295 293 291 290 290 290 294 295 294 295 294 294 294 294 294 294 294 292 290 289 289 290 290 290 290 293 291 289 288 288 290 291 291 291 291 291 293 294 296 297 299 301 305 311 314 314 314 313 312 314 317 320 320
302 301 300 300 300 301 301 301 301 302 301 301 300 299 300 300 300 300 299 298 298 297 297 297 297 296 296 296 296 297 297 297 293 294 291 290 290 290 289 292 290 295 295 294 294 294 295 295 294 292 289 289 290 290 290 290 292 292 289 289 288 288 290 291 290 290 290 290 291 291 294 296 296 298 300 302 303 305 309 313 316 316 315 317 321
302 301 301 300 300 300 300 301 302 302 301 301 300 300 299 300 299 299 299 298 297 297 296 297 296 295 294 294 295 296 297 297 295 292 293 290 290 290 289 289 290 293 296 295 295 295 294 294 293 289 289 289 290 290 290 291 291 289 289 289 289 290 290 289 288 288 288 288 289 289 291 294 296 297 298 300 302 304 305 305 307 311 315 317 316
302 301 300 300 300 301 301 301 301 301 301 301 300 299 300 300 299 299 299 298 297 296 296 296 296 295 295 294 294 295 296 296 297 295 291 291 291 290 290 290 290 290 295 296 295 295 292 290 289 290 290 290 290 291 292 292 290 290 289 289 291 291 289 288 288 288 287 287 287 288 289 292 295 296 298 300 301 303 304 305 305 306 307 307 306
301 301 301 301 301 300 300 300 300 301 301 301 301 300 300 299 299 299 299 298 298 297 296 296 295 295 294 294 294 295 296 296 296 297 295 294 293 291 291 291 292 291 293 294 291 290 290 290 290 290 291 292 294 294 294 293 290 291 290 291 291 290 290 288 287 287 286 287 287 287 288 290 294 297 298 299 299 298 300 302 303 303 305 307 305
301 302 301 301 301 300 300 300 300 301 301 301 301 301 300 300 300 298 299 298 298 297 296 296 295 294 294 294 294 295 295 295 295 295 296 296 296 296 296 296 293 293 294 295 293 295 294 294 293 291 291 290 291 291 291 292 293 293 293 293 291 291 290 289 287 287 287 286 287 288 288 291 294 295 296 296 296 298 299 300 300 300 302 303 302
301 301 301 301 300 301 301 294 297 300 301 301 300 300 301 301 299 298 298 298 297 297 297 296 295 295 294 294 294 294 294 295 295 294 294 293 294 295 296 295 295 295 294 294 294 295 295 292 293 295 294 294 293 294 293 293 293 292 293 292 291 291 290 290 290 289 288 288 288 289 289 290 291 292 294 295 295 296 299 299 299 299 300 301 299
301 301 301 301 301 300 302 301 301 301 301 301 301 301 300 300 300 300 301 300 300 299 298 297 297 297 295 294 293 293 294 294 294 290 291 289 290 293 294 293 294 294 292 289 293 295 295 294 294 293 293 291 291 292 292 292 291 292 292 291 291 291 290 289 287 287 287 288 287 287 287 289 289 291 292 293 294 295 297 298 299 299 299 299 296
301 301 300 301 301 300 301 301 301 300 301 300 300 301 293 292 297 300 300 291 285 286 289 296 297 296 296 296 295 293 293 294 289 288 288 288 288 288 288 288 288 290 289 288 292 293 292 292 292 291 291 291 290 290 290 291 290 290 291 289 290 290 289 288 287 287 288 288 288 288 287 288 288 289 290 290 292 294 294 294 297 298 297 296 295
300 300 299 300 299 300 301 301 301 301 301 300 299 297 298 298 287 286 289 290 289 286 285 286 286 285 291 294 295 289 288 288 288 288 288 288 288 288 288 288 288 288 288 289 292 290 291 290 290 291 291 291 289 290 290 290 290 289 289 290 291 289 288 288 288 288 288 288 288 288 288 288 287 288 288 288 290 292 293 295 296 296 295 294 294
300 299 300 300 297 299 300 301 301 300 299 299 298 297 297 296 298 289 285 286 285 285 286 285 285 285 285 288 291 296 291 289 288 288 288 288 288 288 288 288 288 288 288 289 290 290 291 291 290 290 290 289 289 290 290 290 290 290 289 289 289 289 288 288 289 290 289 289 289 288 288 288 287 287 288 288 289 290 291 292 292 292 293 293 293
301 300 300 299 298 297 298 299 299 299 298 297 298 297 296 296 295 296 294 286 285 286 285 285 285 285 286 286 287 288 288 288 288 288 288 288 287 288 287 288 289 288 289 290 290 290 290 291 291 290 290 289 290 290 289 291 290 290 291 290 289 289 290 290 289 290 289 289 289 289 289 289 288 288 287 288 288 288 289 290 291 291 292 291 290
301 300 299 299 299 299 299 299 299 299 299 298 297 297 296 297 296 296 296 296 294 290 285 285 286 287 288 287 288 288 288 288 288 288 288 288 287 288 287 291 290 289 290 290 290 290 291 291 290 290 290 290 290 290 289 290 290 291 291 291 291 292 291 292 291 289 289 290 290 289 289 289 289 288 287 287 288 288 287 288 289 288 288 288 288
300 293 290 293 300 300 300 300 299 299 298 298 297 296 297 297 297 296 295 295 295 294 296 296 290 288 293 292 290 288 288 288 288 288 288 287 287 287 289 294 292 293 293 292 291 290 290 290 290 290 290 290 290 290 290 291 290 290 290 290 291 291 291 290 290 290 291 290 290 290 290 289 290 289 289 287 287 287 287 287 287 288 288 288 288
299 298 297 296 299 301 300 300 300 299 298 298 299 297 296 296 296 296 295 295 296 295 295 297 297 293 287 288 287 287 287 288 288 288 287 287 287 287 292 291 291 292 291 291 291 291 291 291 291 291 291 291 291 290 290 290 291 291 291 291 290 291 291 290 289 289 289 290 290 290 291 291 290 290 290 289 288 287 287 287 287 287 287 288 288
298 299 299 299 299 300 300 300 301 300 294 296 296 297 296 296 296 296 297 296 296 296 296 297 297 298 293 295 293 290 288 287 288 288 288 288 287 292 294 293 292 293 291 291 291 291 291 291 291 291 291 290 290 290 290 290 290 291 290 291 292 291 289 290 289 289 290 290 290 290 290 291 291 290 290 289 288 288 288 288 288 288 287 287 287
299 299 299 299 299 299 299 299 298 288 294 296 298 297 296 297 297 297 296 297 295 294 296 296 293 295 294 296 296 294 293 291 290 290 290 291 291 293 293 293 293 292 291 291 291 292 291 292 292 291 292 291 290 290 289 289 288 289 289 291 290 291 289 290 289 290 289 290 290 290 290 291 292 292 291 290 289 289 288 288 289 289 288 288 288
299 292 289 288 291 299 299 297 296 296 297 297 297 296 294 296 295 296 296 296 295 296 295 296 296 295 295 296 297 296 294 294 292 291 291 292 293 294 294 293 293 292 292 292 292 291 292 291 291 292 291 291 290 290 289 288 288 287 289 289 290 290 290 290 289 289 289 290 290 291 290 291 291 292 292 292 291 290 290 290 290 289 288 287 287
298 296 289 285 293 294 296 297 297 297 296 297 297 297 295 295 295 294 296 296 296 295 295 294 295 296 297 297 296 297 294 293 292 292 292 292 292 294 294 293 293 292 292 292 292 292 292 292 292 292 291 291 290 289 289 288 287 287 287 288 288 289 289 289 289 289 289 290 290 290 290 290 291 291 292 292 292 292 291 291 291 290 290 289 289
298 298 291 288 292 296 294 295 296 297 297 297 297 296 297 295 296 294 295 295 296 295 295 296 296 297 297 293 288 288 295 294 294 293 293 292 292 293 293 294 292 293 293 292 292 292 292 292 292 292 291 291 291 290 289 288 287 286 285 285 286 287 288 289 288 288 288 289 290 290 290 291 291 291 291 292 291 292 293 293 293 292 292 291 290
298 297 296 295 294 295 296 296 296 294 296 297 297 297 297 295 296 295 293 293 293 293 294 296 296 297 292 285 286 285 293 295 296 294 295 294 294 294 293 294 294 294 293 293 293 292 292 292 292 292 291 290 290 288 288 287 287 286 285 284 284 285 286 288 288 287 288 289 290 290 290 290 291 291 291 290 293 293 293 293 293 293 293 292 291
298 297 297 298 296 296 296 296 296 297 295 296 296 292 293 294 295 294 295 294 296 294 294 295 295 296 296 287 287 285 294 296 292 294 294 294 294 293 294 294 294 294 295 295 294 294 292 291 292 292 292 291 291 290 289 288 287 286 285 283 283 283 284 285 287 287 288 289 290 290 290 290 291 291 291 291 292 292 292 292 292 293 292 292 291
297 297 297 296 297 297 297 297 296 295 296 293 294 293 294 296 294 295 296 297 297 294 295 295 295 296 296 293 289 292 296 296 296 296 295 294 294 293 293 295 294 294 295 294 294 294 293 292 291 292 293 293 293 293 290 289 288 287 286 284 283 283 283 283 284 286 287 288 290 290 290 290 290 291 290 290 291 291 291 291 292 292 293 292 292
298 297 296 297 298 297 297 296 295 296 295 292 295 296 293 295 295 295 296 296 295 295 295 295 295 295 294 296 296 296 296 296 294 293 294 295 294 295 292 295 294 294 293 293 294 294 293 291 291 291 291 292 293 293 292 291 290 289 288 286 284 283 283 283 283 285 287 288 290 291 291 291 290 290 290 291 290 290 290 291 292 290 292 292 292
298 297 296 297 297 296 296 297 293 296 295 295 295 295 296 296 296 297 295 296 295 295 295 296 295 295 294 296 296 295 296 297 296 296 294 295 295 295 295 294 292 295 293 294 294 293 292 292 291 291 291 291 292 293 293 292 291 290 290 289 286 286 285 285 285 285 287 288 289 290 291 291 291 290 288 290 291 291 290 290 290 291 292 291 291
299 297 297 296 297 296 296 297 296 295 296 295 296 296 296 296 297 296 294 295 297 296 296 296 296 295 296 296 296 296 296 295 295 293 295 297 296 296 295 295 294 293 294 294 294 294 293 292 292 290 290 290 290 293 293 293 292 291 290 289 288 287 286 285 285 285 286 288 289 290 290 291 291 291 290 290 290 290 290 290 290 289 291 291 292
298 297 297 296 297 296 296 296 294 290 295 295 295 295 294 295 296 295 296 296 295 295 296 297 297 296 295 297 296 296 296 296 296 295 295 294 296 294 295 293 292 294 294 294 294 292 293 293 292 291 291 291 290 292 293 293 292 291 291 291 288 284 280 280 287 287 286 287 289 290 290 290 290 291 290 290 289 290 289 290 290 290 290 291 292
296 296 296 296 295 296 295 295 294 295 295 296 295 294 294 295 295 296 296 297 296 296 297 296 296 297 296 297 296 296 296 295 297 296 296 296 296 294 294 294 291 292 292 293 294 293 293 292 292 292 292 292 292 292 291 292 292 292 290 290 285 277 277 277 283 284 282 287 289 289 290 290 289 289 290 290 290 290 289 289 290 290 290 289 290
296 295 296 296 296 296 296 297 296 296 296 296 296 296 295 296 295 295 296 296 297 296 297 297 296 297 297 297 295 296 297 296 296 296 296 297 296 296 296 294 293 292 293 293 294 294 294 293 292 291 291 292 292 291 292 292 292 291 289 288 279 276 277 277 281 278 283 287 288 289 289 289 289 289 290 289 290 289 289 289 289 289 290 289 289
295 295 296 296 297 297 297 297 296 296 296 296 295 295 295 295 295 296 295 296 296 296 296 297 297 297 297 297 295 297 296 297 297 297 297 297 297 296 295 294 294 293 293 293 293 294 292 293 294 293 292 292 292 293 292 292 292 291 285 279 277 277 276 277 284 280 277 281 288 289 289 288 288 288 288 288 289 289 288 289 289 289 290 290 289
Wind_Speed
10 9 9 10 11 12 12 12 12 11 12 12 12 11 11 11 10 9 8 9 9 9 9 9 9 9 10 10 10 10 11 10 10 9 9 9 9 9 10 11 11 10 10 11 11 11 11 12 12 12 12 12 11 11 11 12 12 11 10 9 8 9 10 10 12 14 12 6 8 8 8 8 7 8 11 11 11 10 13 16 16 14 14 14 11
10 10 9 9 11 11 11 11 10 11 12 12 12 12 11 10 10 9 10 9 9 9 10 8 8 9 9 10 10 11 11 11 10 9 9 10 9 8 9 11 11 11 10 11 12 10 11 13 13 13 12 12 12 12 11 11 12 12 12 12 11 11 9 8 9 12 14 12 11 9 8 9 10 9 11 11 10 10 11 13 14 15 14 13 9
10 10 10 10 11 11 10 10 11 12 12 11 12 12 11 11 10 10 10 9 9 9 9 9 9 9 10 10 10 10 12 11 10 10 10 10 10 10 10 10 11 11 11 11 11 12 13 12 13 13 11 13 12 12 12 12 12 12 13 11 12 12 11 9 9 12 14 13 11 13 10 8 9 10 11 11 10 9 9 10 11 11 10 14 15
10 11 11 11 11 11 11 11 12 11 12 11 12 11 10 10 10 10 10 9 9 8 9 10 10 10 10 11 11 11 12 12 12 11 11 11 11 10 10 11 11 11 11 12 12 11 12 13 13 14 14 13 13 12 12 13 12 12 13 12 12 13 11 11 11 9 10 12 12 11 12 11 9 11 9 9 10 10 10 10 11 12 14 15 16
10 11 11 12 11 11 11 11 12 12 12 11 12 11 11 10 9 10 9 10 9 9 9 9 10 10 10 11 11 12 12 13 13 13 12 11 11 11 11 10 11 11 11 12 12 12 12 13 13 14 14 14 13 13 13 16 14 13 13 12 12 12 12 12 13 11 11 12 13 11 10 12 11 8 8 9 10 10 11 12 12 12 13 11 13
10 10 10 11 11 11 11 11 12 12 11 11 11 10 10 10 10 9 10 10 10 10 10 9 10 11 11 11 11 12 12 13 14 14 13 12 11 11 11 11 11 11 11 12 12 12 12 13 13 13 14 14 14 13 14 16 14 14 15 14 13 13 14 14 13 14 12 12 11 13 10 11 12 10 9 10 10 10 11 11 12 11 11 11 11
10 10 10 10 10 11 11 10 10 10 10 10 9 10 10 10 10 10 9 10 11 10 11 11 10 11 11 11 12 12 12 14 14 15 14 13 12 12 12 12 12 11 12 12 12 11 12 13 13 13 14 14 14 14 14 16 14 16 15 16 16 17 15 14 14 14 13 13 13 12 11 11 10 12 10 11 12 12 11 10 11 11 9 12 11
10 10 10 10 10 10 9 9 9 9 9 9 9 10 10 10 10 10 10 11 11 11 11 11 10 10 11 11 11 10 12 14 15 16 15 15 12 12 12 13 12 12 12 12 13 12 13 13 13 13 14 14 13 13 15 15 15 15 15 15 16 17 16 15 14 13 13 13 12 13 12 10 11 11 11 10 10 12 12 12 13 11 12 12 12
10 10 10 10 10 9 9 8 8 9 9 9 9 10 10 9 10 10 10 10 9 10 11 11 11 12 12 11 12 11 11 13 12 14 15 16 13 12 12 11 11 11 11 12 14 14 14 13 13 13 15 17 18 15 15 15 14 15 16 16 17 16 16 14 14 13 13 12 13 12 12 12 10 10 11 10 10 11 11 12 13 11 10 11 12
10 10 10 9 9 9 9 8 9 8 9 9 9 9 9 9 9 10 10 10 9 9 10 11 12 12 12 12 11 10 10 11 15 19 16 14 14 10 9 9 9 10 11 12 13 14 14 13 13 17 17 18 18 16 15 15 18 17 17 17 17 16 15 15 15 14 13 14 13 13 14 13 11 10 11 12 11 9 10 11 13 13 11 12 10
10 10 10 9 9 9 8 8 8 9 8 8 9 10 10 9 10 10 9 9 9 10 10 11 11 11 11 11 11 10 10 12 18 17 17 19 14 11 9 9 10 12 14 14 14 14 14 14 13 15 16 17 16 16 14 16 18 20 22 22 20 17 16 16 15 15 14 14 13 13 13 16 16 12 12 12 12 14 14 11 11 12 13 11 14
11 10 9 9 9 8 8 8 8 8 9 9 9 10 9 10 10 9 9 10 9 9 11 11 11 11 9 11 11 10 10 15 17 18 17 18 17 13 10 11 12 12 13 14 13 13 14 14 14 13 13 17 17 16 18 20 20 21 22 22 22 20 17 16 16 16 15 15 15 15 14 15 16 14 13 11 13 12 14 13 13 14 13 11 12
10 9 8 8 8 7 7 8 8 8 8 9 8 9 10 10 9 9 10 8 9 11 11 11 11 10 10 11 11 11 11 16 16 18 18 19 19 15 10 10 11 12 13 13 13 13 13 13 14 14 14 22 18 18 20 21 22 22 22 22 21 20 18 16 18 18 17 17 17 19 15 15 17 16 14 14 13 15 13 11 11 11 13 15 14
10 8 7 7 7 7 7 8 8 8 7 8 9 9 9 9 8 8 8 9 9 10 11 12 10 11 10 10 10 11 11 15 17 18 18 19 19 14 10 11 11 12 14 13 12 13 14 14 15 15 16 17 17 20 21 21 21 20 18 18 18 21 21 19 17 18 17 16 17 18 18 16 17 17 19 17 16 14 13 13 12 12 13 14 12
10 9 8 7 6 6 7 7 8 8 8 8 8 9 8 8 9 8 8 8 9 9 10 10 9 10 10 10 9 10 10 15 16 17 18 19 19 12 13 12 12 12 13 13 13 13 13 14 15 16 17 17 17 22 23 22 21 18 19 19 19 19 19 19 17 16 15 15 16 18 20 20 20 21 20 17 19 16 14 16 15 14 13 12 7
9 8 7 6 6 6 8 8 8 8 8 8 8 8 8 7 8 6 7 7 8 8 8 8 9 10 10 10 9 11 10 14 16 16 18 19 18 11 11 12 13 13 13 14 13 13 13 15 16 16 18 18 22 25 23 21 21 20 19 20 19 18 17 17 19 18 18 18 18 19 20 22 23 21 21 19 18 16 13 15 16 17 14 11 12
9 8 7 7 7 7 8 8 8 8 7 8 8 7 7 7 7 5 7 7 8 8 8 8 8 8 9 9 10 9 10 13 15 16 17 18 15 13 13 13 13 14 14 14 13 13 14 16 16 17 19 19 23 24 23 23 20 20 19 19 18 19 19 19 19 21 20 22 25 27 29 30 31 31 31 32 25 22 15 15 17 14 12 11 11
9 9 8 7 7 7 8 9 9 8 7 8 7 6 5 5 6 4 6 6 7 7 6 7 7 8 8 9 9 8 9 11 14 16 17 17 16 13 13 13 14 14 13 14 13 13 15 20 19 19 20 21 24 23 23 22 20 20 19 19 21 21 21 19 18 18 22 22 23 25 27 28 30 30 31 31 30 22 16 18 17 13 14 12 11
9 9 8 7 6 6 7 8 8 7 7 6 5 6 5 5 4 3 4 4 5 5 6 7 7 7 7 8 9 10 9 10 13 15 16 16 15 13 14 13 14 14 13 13 13 14 14 15 19 17 19 21 24 23 23 22 20 19 19 19 19 20 20 21 20 22 22 21 19 18 18 20 20 18 21 29 30 25 20 19 13 14 15 12 11
8 8 7 6 6 6 6 7 6 6 6 5 4 4 3 4 4 4 4 4 5 5 5 6 7 7 7 8 8 8 9 10 11 14 15 16 15 12 12 14 14 14 13 14 14 14 14 15 17 19 23 24 24 24 23 22 20 19 18 15 17 19 20 20 21 21 21 19 20 19 20 19 18 16 16 16 18 20 19 18 16 14 14 12 12
8 8 7 6 6 6 6 6 6 4 4 4 3 3 2 3 3 4 4 4 4 5 5 6 6 7 7 7 8 8 8 9 10 13 14 15 15 12 10 12 13 14 13 13 13 14 14 15 14 19 24 24 23 23 23 22 21 18 18 16 17 20 23 17 21 26 18 18 18 17 15 13 12 12 13 13 13 13 14 15 15 15 15 12 12
7 8 8 7 7 6 6 4 4 3 3 3 3 3 2 2 2 3 3 4 5 6 6 6 6 7 6 7 7 7 7 7 10 12 13 15 15 14 10 11 11 10 12 11 13 12 15 15 15 19 23 23 23 23 23 21 22 18 19 23 25 26 21 18 16 16 15 16 14 14 14 12 11 10 8 7 7 9 11 12 13 12 14 13 11
8 8 8 7 7 6 5 5 4 3 3 2 2 3 2 2 2 2 3 4 5 5 6 6 6 7 7 7 7 7 8 7 8 11 14 14 14 14 14 11 13 11 11 13 13 12 12 13 14 20 22 22 22 22 21 21 19 18 24 24 26 26 21 14 14 14 15 14 12 12 13 11 12 10 9 9 6 5 4 3 6 9 10 9 10
8 8 7 7 7 6 5 4 4 3 3 3 2 2 1 1 1 3 3 3 4 5 6 6 7 7 8 8 7 7 7 7 7 9 12 13 13 13 14 14 13 11 10 10 11 11 12 13 14 20 20 20 21 21 19 19 17 23 23 25 26 23 15 16 17 18 18 18 15 14 14 12 11 9 10 8 7 5 3 3 3 2 5 4 4
7 7 8 7 7 6 4 4 4 3 3 3 2 2 1 1 1 1 2 3 4 5 5 6 6 7 7 8 7 7 7 7 8 9 11 12 11 11 13 13 14 14 10 10 11 11 12 15 16 17 17 18 19 18 17 18 21 21 22 24 24 14 15 16 18 17 19 17 15 14 13 13 12 12 10 9 8 7 5 5 7 6 5 6 6
8 8 7 7 6 6 6 4 3 3 3 2 2 1 1 0 1 1 1 2 3 4 5 5 6 7 7 7 7 7 7 7 8 9 9 11 11 11 11 13 14 14 11 10 13 14 14 14 15 16 16 16 15 15 15 15 19 20 22 24 14 15 15 18 18 16 15 15 14 14 13 13 14 11 10 9 9 10 8 7 7 7 6 4 5
8 7 7 6 5 5 6 5 4 4 3 2 2 2 2 1 1 1 1 2 3 4 5 5 6 7 7 7 7 7 7 7 8 9 9 9 10 10 11 11 13 12 12 12 12 12 13 13 12 13 12 15 15 14 16 18 16 18 18 16 14 14 13 14 16 15 14 15 15 15 15 13 13 12 11 11 11 10 10 8 9 7 7 9 10
8 8 8 6 6 6 6 4 4 4 4 3 3 3 2 2 2 2 2 2 3 3 4 5 6 6 7 7 7 7 7 7 8 9 9 9 9 9 10 10 11 10 11 11 11 11 11 11 12 13 13 14 16 15 15 14 15 15 14 15 14 15 16 19 16 13 14 14 13 13 15 10 12 13 12 12 12 11 12 11 10 9 8 9 10
8 8 6 6 5 4 4 5 5 4 4 3 3 2 2 1 1 1 0 1 2 2 3 3 4 4 4 6 7 7 7 7 8 10 9 9 7 8 8 9 9 9 11 14 11 10 10 12 13 14 15 14 15 15 15 15 15 15 16 15 15 15 15 15 15 16 15 15 17 14 12 11 12 14 14 13 13 14 14 15 14 13 12 14 13
7 7 6 6 5 5 4 5 4 4 3 3 2 2 3 3 3 2 1 3 1 2 2 2 3 2 3 3 3 5 6 7 11 12 11 12 12 12 10 12 12 11 14 17 11 9 10 10 12 13 13 13 14 14 14 13 13 14 14 15 15 15 14 14 14 14 14 15 14 15 15 15 15 14 15 14 14 13 14 15 16 15 15 15 13
7 6 6 6 6 6 5 5 5 3 3 2 2 1 1 3 5 6 5 2 3 5 5 7 6 6 3 3 2 6 7 8 9 10 11 11 12 13 12 12 12 14 15 11 8 10 10 10 11 11 11 11 12 12 13 13 13 12 13 13 13 14 14 13 13 13 14 14 14 14 14 15 14 14 14 14 14 13 13 13 14 14 16 14 12
7 7 6 5 5 6 5 5 4 4 3 3 2 2 1 1 3 5 6 4 4 6 8 7 7 6 8 7 5 4 1 5 8 9 10 11 11 12 12 12 12 13 16 12 8 10 9 9 10 10 10 11 11 11 12 12 12 12 11 12 12 11 11 12 14 13 13 14 14 14 14 14 13 13 14 14 14 13 14 15 15 13 12 14 14
8 6 5 5 6 6 5 5 4 4 5 4 3 3 2 1 1 2 3 3 3 6 7 7 7 7 8 8 8 6 7 8 8 8 9 10 11 11 11 11 11 12 13 9 9 10 9 10 11 11 11 11 11 11 11 11 12 12 11 10 11 10 11 13 13 14 13 14 14 14 14 15 14 13 14 13 14 13 12 14 15 16 15 13 11
8 6 6 6 6 5 5 5 5 5 4 4 3 3 2 1 0 0 0 2 3 3 5 7 7 7 8 7 4 5 6 7 7 8 8 9 10 12 11 7 8 8 8 9 9 9 10 11 11 11 11 11 11 11 10 11 11 11 11 11 11 11 13 13 12 14 13 14 14 14 15 14 14 14 12 12 13 14 13 12 13 13 14 12 11
6 7 10 8 6 6 5 4 4 4 4 4 4 3 3 2 2 2 1 2 2 2 1 3 6 5 1 2 2 5 6 6 6 7 8 9 9 12 11 7 8 9 9 10 10 10 10 10 11 11 11 12 12 10 11 12 12 11 12 11 12 13 13 12 11 11 10 11 12 13 13 14 14 14 13 12 13 13 12 13 13 12 13 12 12
6 6 6 5 4 4 4 5 4 5 5 4 3 2 2 2 2 2 1 1 1 1 1 0 0 1 3 4 5 5 4 4 5 6 6 7 8 10 6 7 7 8 9 10 10 10 9 10 10 11 11 11 11 11 12 12 12 12 12 12 12 12 12 11 10 10 10 9 10 12 13 12 13 13 14 14 14 14 13 12 13 13 12 11 9
6 6 6 5 4 4 4 3 4 3 2 2 2 3 3 3 2 3 2 2 1 1 2 1 1 3 5 4 3 3 2 4 5 5 5 5 7 5 6 6 7 8 8 9 9 9 10 10 10 10 11 11 11 11 11 12 12 12 12 12 13 13 13 11 13 10 10 10 10 10 11 9 12 13 11 11 13 12 13 13 13 13 12 15 14
7 7 6 5 4 4 4 4 3 4 3 3 2 3 3 3 3 3 3 3 2 2 2 1 2 2 2 1 3 1 5 5 7 6 5 2 3 5 6 6 6 7 7 8 8 9 9 10 10 10 10 10 11 11 11 11 12 12 11 12 11 10 16 13 14 12 12 10 10 9 10 10 10 10 11 11 11 13 13 14 14 14 14 15 13
6 7 7 7 5 5 5 5 4 4 4 3 3 3 3 3 3 4 4 4 3 2 2 2 2 2 2 1 1 1 4 3 3 4 4 4 4 5 6 6 6 6 7 7 8 9 9 9 10 9 10 10 10 10 10 10 11 11 11 10 10 10 12 12 12 12 11 11 11 10 9 9 9 9 9 11 12 11 14 15 16 14 13 13 12
6 5 5 6 4 4 4 4 4 4 4 4 4 4 3 3 4 4 4 4 4 2 2 3 3 2 1 2 2 2 3 3 2 3 3 4 4 6 6 5 6 6 7 7 8 8 9 9 9 9 10 10 10 10 10 10 9 9 9 10 10 11 11 11 11 12 11 11 11 11 10 9 9 8 8 9 10 10 10 11 11 12 12 13 12
6 6 6 6 4 4 3 3 5 5 5 5 4 4 5 4 4 4 4 4 3 2 3 3 3 2 2 2 2 1 3 3 3 4 4 3 3 4 5 5 3 6 6 6 7 8 8 8 8 8 9 9 9 9 9 9 8 8 9 9 9 10 10 11 11 11 11 11 10 10 10 10 9 9 9 8 9 9 9 9 10 10 10 10 9
6 6 6 5 5 4 4 5 5 5 4 4 4 5 4 4 4 4 4 4 4 3 2 3 3 2 3 5 5 6 4 3 3 3 4 4 4 4 3 4 4 4 4 5 6 6 6 7 6 6 6 6 6 7 7 7 8 8 8 8 8 9 9 10 10 10 11 11 10 10 9 9 9 10 10 10 8 8 9 9 9 9 10 10 9
7 7 7 5 5 5 6 5 5 4 4 4 5 4 4 3 4 4 5 5 4 4 3 3 3 2 2 6 6 7 4 4 4 4 4 4 4 4 3 3 4 4 4 4 4 4 3 4 5 5 5 5 6 5 6 7 7 7 8 8 8 8 8 9 9 10 10 10 10 10 9 10 10 10 9 9 9 8 8 8 8 9 9 9 9
6 6 6 6 6 4 4 4 4 5 5 5 4 3 3 3 4 4 5 5 5 4 4 4 3 3 2 3 5 5 4 4 4 4 4 4 4 3 3 3 3 4 4 4 3 4 3 3 4 4 6 6 6 6 5 4 5 6 7 8 8 8 7 7 8 8 9 9 9 10 10 10 10 10 9 9 9 9 9 8 8 9 9 9 8
6 7 7 6 5 5 5 4 5 5 4 4 4 4 4 4 4 5 5 5 5 5 5 4 3 3 4 4 4 4 4 4 4 4 3 4 3 4 2 3 2 3 2 3 2 3 3 3 3 3 4 4 6 6 6 6 5 4 5 6 7 8 7 7 6 6 7 8 9 9 9 9 10 10 10 10 9 9 9 8 7 8 8 8 8
7 7 7 7 6 5 5 4 5 5 5 5 5 6 5 4 5 5 5 6 5 5 5 5 3 4 4 5 4 4 4 4 4 4 4 3 3 3 2 2 2 3 2 2 2 2 2 2 3 3 4 4 4 5 6 5 5 6 6 6 6 5 6 5 5 5 6 6 7 8 9 9 9 8 10 9 9 9 8 8 7 7 6 6 6
6 6 6 6 6 5 5 4 4 5 6 5 5 6 5 5 5 5 5 6 6 5 5 5 5 5 5 5 5 5 5 4 4 3 4 4 5 4 3 2 2 3 3 3 2 2 2 2 2 2 3 3 3 5 5 5 5 5 5 6 6 7 5 6 5 5 5 6 6 6 8 8 9 8 9 9 9 9 8 8 7 7 6 5 4
5 6 5 5 5 5 5 4 5 6 6 6 6 6 6 6 5 5 6 6 6 6 6 5 5 5 5 5 5 5 5 5 4 4 3 3 3 2 2 2 3 3 3 3 3 3 2 3 2 2 3 3 3 3 4 5 5 5 5 5 6 5 6 8 5 6 5 5 6 6 6 7 8 8 8 8 7 8 9 8 8 7 6 5 4
6 6 5 5 6 6 5 6 6 6 7 7 6 6 6 5 6 6 6 6 6 6 6 6 6 6 5 5 5 5 5 4 5 5 3 3 4 2 2 2 2 2 3 3 3 3 3 3 2 3 3 3 2 2 3 4 4 4 4 4 4 7 7 7 6 5 8 5 6 6 6 7 7 7 7 7 8 8 7 7 7 6 6 6 5
6 6 6 6 6 6 5 5 5 6 7 6 6 6 6 6 6 6 6 6 6 6 6 6 6 6 6 6 6 6 6 6 6 6 5 4 3 3 2 2 2 2 3 3 3 3 3 3 2 3 3 3 2 2 3 2 3 2 2 2 4 6 6 8 6 7 7 4 5 5 6 6 7 7 7 7 7 7 7 7 7 6 5 5 5
7 7 7 7 7 6 5 5 5 6 6 6 6 6 7 7 7 6 6 6 7 7 7 7 7 6 6 7 6 6 6 6 6 5 5 5 5 3 3 2 3 3 3 3 3 3 3 3 2 2 2 3 3 2 3 2 2 2 1 2 4 4 4 5 5 7 7 6 3 5 6 6 6 7 7 7 7 6 6 7 6 6 6 5 4
Wind_Direction
87 85 85 84 84 83 83 82 79 76 75 73 74 70 69 67 62 60 56 51 45 43 40 37 35 33 31 29 24 21 18 16 12 11 13 11 11 7 3 0 359 359 352 351 353 347 345 342 342 342 340 337 337 334 335 337 340 337 333 330 326 331 336 326 319 316 314 290 256 245 229 222 239 213 230 227 219 219 221 233 231 225 220 220 202
90 89 85 84 84 84 83 80 75 74 75 74 73 71 67 62 60 57 55 49 46 43 42 38 36 33 32 29 27 24 21 19 16 14 13 12 12 9 3 3 1 358 354 352 350 349 344 344 344 344 345 340 338 337 337 341 340 336 336 335 330 328 330 321 320 318 311 321 310 278 242 211 232 218 228 227 227 223 216 226 232 227 222 218 199
91 89 87 86 84 83 82 78 77 75 74 71 69 68 66 62 57 56 53 51 47 45 41 40 37 35 34 31 26 25 21 18 17 14 15 11 9 8 6 2 1 358 355 352 348 349 348 345 345 345 344 341 342 339 340 342 339 335 333 333 329 327 328 329 323 316 314 309 307 304 278 230 223 225 219 226 229 219 221 218 224 228 224 222 210
91 88 87 86 84 83 80 78 75 74 72 68 67 66 66 63 59 57 55 50 50 45 44 39 39 35 33 28 27 23 21 19 17 16 11 7 3 1 360 3 2 358 353 350 350 349 349 346 345 345 344 341 342 342 342 341 338 334 332 332 329 328 326 324 321 311 307 303 309 307 305 285 240 231 225 222 227 227 223 229 219 225 225 222 222
91 88 87 85 82 82 81 79 77 74 72 70 68 67 65 64 59 57 56 54 47 45 42 38 36 34 30 26 23 23 21 18 16 15 12 6 3 0 359 359 357 354 352 351 350 349 350 348 344 345 345 342 341 342 342 340 338 335 333 331 329 326 324 321 317 312 305 300 300 299 296 290 275 245 218 222 226 232 230 225 218 220 223 221 230
92 89 87 87 86 83 81 79 77 76 74 72 69 67 66 64 63 58 53 52 49 45 43 38 35 33 31 27 23 22 22 19 18 13 8 5 4 3 1 359 355 353 351 350 350 352 350 350 346 346 345 344 341 340 339 338 337 333 331 330 328 324 321 316 315 313 304 293 291 298 298 297 292 262 230 218 223 227 230 230 228 223 215 219 223
95 91 89 89 89 83 81 79 78 77 75 74 73 69 66 64 62 59 54 53 50 46 41 40 35 32 29 26 24 24 23 20 18 13 8 6 4 4 2 0 358 356 357 354 352 350 350 353 349 348 347 345 343 341 339 337 335 331 330 329 326 325 319 316 315 310 306 301 297 288 289 290 285 281 252 221 220 224 225 227 230 222 211 206 210
101 95 93 91 88 86 83 83 81 79 78 76 73 69 67 65 62 59 55 51 47 42 37 35 32 30 27 26 25 26 24 22 17 12 8 6 4 5 3 1 358 357 356 354 355 353 351 350 348 347 346 345 343 338 337 336 333 327 326 324 322 320 317 313 311 308 303 302 295 299 296 292 289 277 271 244 224 225 223 225 230 222 216 211 209
103 100 96 93 91 91 89 84 83 82 80 77 73 70 68 65 63 59 54 51 44 39 36 31 29 28 28 27 26 26 26 21 14 6 6 5 5 3 2 356 356 356 354 356 358 356 354 349 344 341 338 336 333 326 328 333 330 326 321 320 318 314 311 309 306 302 300 296 295 293 291 289 284 287 281 256 232 230 217 216 229 228 219 211 215
107 103 100 98 98 98 94 90 87 84 79 75 72 70 67 64 60 56 51 46 42 34 32 31 29 27 25 25 27 26 25 22 2 359 1 2 359 354 351 351 351 352 355 356 356 355 352 348 342 340 335 334 332 331 335 332 327 319 315 314 311 307 302 302 300 301 298 295 293 294 292 289 286 282 280 272 259 245 232 220 224 225 213 216 212
110 110 107 105 104 101 96 93 89 82 76 73 71 68 64 61 57 53 47 40 35 34 31 31 29 25 26 26 25 27 26 14 358 358 355 356 353 344 344 345 350 358 2 0 357 354 351 349 346 342 341 339 336 333 332 329 321 314 308 303 298 294 297 293 288 293 296 290 290 288 285 285 284 281 276 277 272 255 243 229 228 221 215 204 213
112 112 112 113 110 106 101 95 86 79 75 71 68 65 62 58 54 48 44 38 36 35 33 30 29 26 24 26 26 24 23 11 357 356 353 350 350 340 350 357 359 2 359 359 357 354 351 348 347 345 343 342 339 338 334 328 321 313 307 302 298 288 270 269 283 288 285 288 287 282 284 281 284 281 279 277 275 269 252 242 228 220 216 214 215
102 105 111 113 110 104 100 93 86 79 74 71 68 64 60 58 52 49 45 38 38 38 33 31 29 26 24 23 25 22 21 10 354 355 352 349 346 345 8 360 2 4 360 359 356 355 353 350 347 345 343 343 342 342 337 331 326 317 307 302 297 297 295 275 257 265 280 278 282 281 275 280 278 275 273 275 279 274 264 246 239 233 224 222 220
122 124 123 118 114 108 101 93 86 82 78 75 70 64 63 58 56 52 48 43 39 37 33 34 29 27 23 20 24 22 19 4 356 355 352 347 344 331 8 3 2 5 4 2 358 357 357 353 349 345 344 344 343 343 338 334 329 323 320 316 311 308 304 297 287 271 260 266 268 271 274 270 269 274 274 275 277 276 277 261 238 234 231 229 221
126 128 125 120 115 107 100 94 91 88 84 80 75 69 62 61 57 52 49 43 38 36 31 31 26 24 21 17 20 21 17 1 357 355 352 350 339 337 13 6 7 6 5 3 360 358 357 354 351 348 345 343 343 342 337 334 330 326 322 319 317 313 309 307 306 305 299 288 280 277 276 274 271 271 272 270 267 265 263 272 268 249 237 232 215
128 128 124 120 114 108 104 100 98 96 94 88 82 75 67 59 55 48 49 48 43 38 37 33 28 25 20 14 16 19 17 4 358 358 353 355 338 11 8 9 7 5 4 2 1 360 357 355 353 351 347 343 344 337 332 331 331 329 326 323 321 315 309 305 297 289 286 284 281 277 275 270 268 266 267 266 267 273 290 290 280 258 243 223 214
131 127 123 121 117 112 109 107 103 104 101 96 87 78 72 63 56 40 50 47 41 35 33 32 29 25 19 19 11 10 15 8 359 359 357 356 355 17 13 12 10 5 6 2 1 360 358 355 355 353 348 346 341 333 331 330 335 332 328 326 323 320 317 316 311 301 286 277 272 267 264 262 259 258 257 256 253 257 267 273 269 261 234 221 210
131 129 126 126 121 117 115 114 112 109 105 98 94 89 80 72 62 35 44 40 41 31 26 31 32 27 19 20 11 2 10 7 1 357 358 359 350 13 13 13 11 8 5 5 2 1 359 358 356 354 351 346 337 332 333 337 340 334 330 328 327 325 322 321 317 309 299 283 274 268 263 258 256 250 249 250 248 240 232 241 244 248 231 221 214
136 134 131 127 123 120 118 118 118 116 111 105 98 91 77 70 62 49 45 43 38 34 26 31 31 29 22 15 5 4 3 2 2 354 358 358 1 12 16 14 12 11 4 2 1 0 358 357 353 349 345 337 334 335 335 340 342 337 333 329 326 324 323 320 316 316 317 316 308 302 292 276 263 248 243 241 241 235 227 232 239 241 235 215 208
133 129 130 128 125 124 122 121 121 122 119 115 102 88 85 79 59 48 46 39 38 31 27 28 29 29 19 15 15 13 4 358 360 351 357 356 358 357 21 16 12 8 6 5 2 3 1 357 357 350 341 337 335 335 335 336 341 339 337 332 325 322 320 316 316 319 317 312 308 308 305 302 289 269 252 245 236 226 222 219 225 233 239 218 206
136 134 135 135 133 129 127 131 131 122 119 115 108 99 77 69 55 44 38 37 29 31 22 18 26 28 25 16 16 13 12 357 356 352 353 353 353 353 5 13 7 5 7 5 6 5 1 0 353 345 338 333 332 333 334 335 337 341 342 333 323 315 317 318 319 320 318 316 313 312 309 308 304 282 250 245 239 227 213 212 219 224 234 230 213
139 141 144 143 138 135 135 129 133 133 129 135 127 107 85 64 54 37 35 28 25 29 21 20 22 24 24 20 14 9 6 5 359 354 352 350 348 356 2 5 354 352 2 7 6 4 2 359 352 340 332 330 330 332 334 337 336 345 339 331 327 329 327 320 319 322 323 324 317 318 317 316 318 316 308 280 249 224 214 209 215 222 227 240 229
149 149 148 148 148 147 145 149 151 152 147 149 134 109 103 78 68 45 27 23 26 24 23 12 15 20 20 21 15 11 3 9 14 357 351 346 348 348 351 355 348 350 3 9 4 357 351 344 342 333 329 328 331 332 333 337 344 344 334 336 334 331 328 326 325 327 325 320 318 319 323 322 332 329 322 325 335 342 338 273 229 218 225 241 247
152 152 153 155 155 158 158 157 156 162 156 156 157 142 120 75 50 39 21 18 18 25 24 14 16 17 16 12 13 10 6 3 9 5 348 345 342 346 347 350 356 357 348 4 356 351 348 343 329 321 326 329 331 332 333 342 345 339 340 340 336 334 332 335 342 333 331 335 334 334 331 325 326 327 332 329 331 349 354 12 24 279 245 222 222
158 161 164 163 163 159 161 163 166 175 170 183 186 177 171 212 28 51 2 18 14 18 19 15 13 11 11 11 7 5 2 0 1 3 344 335 335 344 344 352 352 351 353 2 351 345 323 314 315 325 325 330 332 335 343 349 344 342 343 343 342 339 338 343 339 332 339 339 331 329 331 333 332 329 322 325 351 24 45 48 55 48 58 81 66
167 172 169 166 164 163 169 171 180 183 190 202 223 240 272 265 315 5 351 6 13 11 13 12 11 8 8 8 3 357 353 359 2 359 348 346 349 348 343 352 352 345 340 351 332 323 329 326 328 333 339 339 344 351 348 345 342 348 350 351 345 342 343 342 339 339 338 331 332 335 333 327 331 330 331 349 10 27 35 50 52 45 45 48 60
168 167 170 167 160 171 178 185 190 191 202 211 215 222 222 254 274 295 321 359 5 11 7 7 10 9 5 0 354 350 357 1 5 359 355 350 353 355 2 0 352 349 2 355 344 345 339 337 334 322 332 326 336 341 350 346 348 358 357 352 349 347 340 344 341 338 335 334 336 338 334 335 333 340 359 6 13 19 30 42 53 40 54 69 74
169 173 172 170 172 178 190 164 198 207 203 205 218 210 214 236 277 317 344 354 346 8 6 9 7 4 357 355 351 354 356 3 8 358 348 349 346 350 358 357 357 358 356 350 333 335 341 340 348 1 359 2 2 3 359 355 352 355 353 353 350 350 346 344 347 351 348 340 338 341 344 331 345 355 358 10 11 17 28 40 43 47 42 67 68
172 165 165 169 171 173 188 185 204 213 200 199 227 254 273 248 266 310 91 293 310 321 352 2 0 354 343 353 352 352 354 0 359 339 327 330 342 345 354 356 352 353 344 331 320 344 351 356 2 2 5 3 3 360 357 356 354 349 352 355 352 353 352 358 357 353 348 350 353 347 343 343 353 1 3 8 13 18 26 41 46 56 57 62 62
170 167 171 175 168 173 190 195 203 210 206 209 208 203 189 234 278 299 27 132 148 318 284 330 356 334 327 351 2 347 349 341 325 321 332 343 344 346 339 338 341 342 337 326 321 357 356 4 4 4 359 4 0 358 353 352 351 349 347 348 354 355 354 355 355 349 349 352 351 353 355 356 2 1 4 6 8 15 18 29 45 49 55 59 58
174 171 171 181 176 182 186 197 199 199 193 201 201 204 157 162 208 228 264 241 211 210 225 246 256 257 268 334 337 212 258 289 311 327 341 348 346 343 342 340 340 338 336 330 351 10 3 4 4 1 360 359 359 354 351 351 351 350 348 343 349 351 352 355 351 348 353 352 354 358 359 2 2 1 5 7 12 16 24 27 38 43 50 49 50
173 175 179 174 165 188 190 195 186 189 186 186 191 186 186 155 148 174 204 229 221 222 225 234 240 235 234 243 283 342 323 340 332 336 345 349 347 339 336 333 332 336 328 314 2 13 7 4 2 0 356 358 356 351 348 349 347 348 347 348 348 348 347 352 348 352 355 358 359 1 2 2 1 2 7 10 16 16 22 29 31 32 39 45 46
167 167 169 166 174 181 193 188 189 189 186 184 189 203 194 160 143 132 160 175 194 203 212 223 232 230 235 240 242 265 289 306 325 338 346 345 342 336 321 315 322 328 323 3 12 10 8 7 5 2 360 357 355 351 346 347 348 345 347 345 346 342 349 353 352 359 359 3 4 6 5 4 3 6 9 11 17 18 13 26 33 39 42 47 43
165 166 171 173 176 179 189 192 189 192 194 194 192 191 194 202 85 297 254 155 159 177 212 222 228 237 225 222 254 307 322 324 332 338 346 345 337 331 321 306 322 340 357 12 10 10 7 6 4 4 1 356 354 351 349 348 348 348 345 345 342 344 346 349 356 360 2 5 9 9 10 9 7 8 5 10 17 22 21 23 24 32 38 41 45
164 165 165 172 183 183 187 187 186 193 191 201 196 208 208 209 246 239 268 346 4 0 42 187 199 208 266 290 321 321 321 326 335 337 341 340 336 329 309 347 1 5 13 18 12 9 6 7 5 4 2 359 355 351 351 351 351 352 352 347 348 350 349 350 347 345 350 1 7 10 11 13 11 14 15 13 16 17 18 24 26 27 33 35 41
165 159 170 185 185 179 182 188 189 190 197 198 200 215 222 222 224 228 234 258 288 325 329 103 92 188 235 272 270 279 302 322 327 319 325 322 334 315 354 4 1 7 7 12 9 2 3 5 2 3 2 360 357 355 353 353 354 354 354 353 355 357 354 353 351 347 342 353 1 6 12 16 17 16 18 21 21 21 23 24 30 30 31 37 40
171 170 171 179 182 183 184 181 186 182 171 162 187 212 215 224 233 250 247 246 253 260 293 288 216 196 209 200 216 264 233 291 299 290 291 295 283 295 16 1 5 2 7 7 4 359 3 6 2 3 2 0 359 356 354 354 354 355 353 353 355 358 356 355 359 350 351 355 360 1 2 358 12 17 12 15 23 21 21 23 31 32 32 38 40
174 173 180 177 176 182 185 187 155 133 172 188 208 219 229 235 244 256 264 259 244 262 282 272 224 305 330 25 143 311 328 283 251 240 239 284 359 12 5 11 1 7 0 5 2 358 1 1 2 0 1 1 359 357 356 354 354 355 354 352 351 354 351 354 357 353 353 350 358 360 359 2 3 9 19 27 26 30 27 28 32 35 37 34 36
173 175 170 164 188 192 193 187 162 190 188 203 211 215 222 242 245 253 251 247 225 237 257 282 283 299 301 320 286 257 254 337 8 4 356 1 4 7 6 6 6 4 358 0 0 0 1 360 0 358 0 2 359 359 359 357 354 352 352 351 354 356 356 0 358 356 355 353 354 359 2 1 5 9 11 27 32 30 37 39 38 36 37 37 36
171 172 171 173 185 195 201 196 186 193 202 212 219 219 221 224 244 253 253 250 249 248 274 290 289 279 265 226 253 282 320 333 345 353 351 352 356 3 5 7 2 2 354 355 357 358 357 0 358 1 2 3 1 359 358 359 355 350 352 355 358 357 358 360 358 357 355 352 355 355 358 359 3 6 16 24 27 31 32 36 38 42 42 46 46
180 181 166 184 194 169 188 199 207 215 209 212 222 230 241 241 246 253 253 247 254 254 265 278 285 270 212 192 105 287 287 314 326 330 342 337 342 351 358 2 359 355 350 350 352 355 355 357 359 0 3 359 359 357 356 357 353 353 357 356 359 358 358 360 357 356 348 350 356 356 356 359 4 11 14 18 28 32 34 37 41 42 44 44 40
183 180 184 181 167 201 198 206 214 205 211 206 218 231 237 236 236 241 239 242 247 257 269 273 280 264 158 167 191 202 242 282 289 300 311 324 331 347 342 350 355 352 343 345 344 343 343 345 351 357 357 354 355 354 352 357 354 354 358 358 359 359 360 1 359 352 348 349 353 357 356 357 4 14 14 9 24 29 36 37 39 39 41 46 47
186 192 193 180 184 196 207 210 206 200 200 206 218 222 231 240 241 232 229 230 244 251 265 278 287 264 212 171 182 184 241 259 264 274 290 302 315 320 325 340 346 343 336 331 331 331 332 334 341 355 353 351 356 354 354 356 350 353 357 355 358 357 360 358 358 355 353 350 352 348 346 358 3 13 11 8 11 25 28 26 34 42 43 42 44
191 200 198 193 200 200 207 213 210 211 211 205 214 216 220 225 227 231 229 227 230 233 253 270 281 276 269 156 169 210 249 261 274 285 288 290 296 304 310 320 325 329 327 333 335 331 325 331 338 347 349 351 354 354 352 356 351 351 354 354 358 358 359 358 354 351 349 345 348 355 360 1 1 9 11 13 10 15 23 21 30 36 45 50 43
201 202 200 202 202 211 209 206 218 217 208 197 212 215 207 224 231 226 225 231 229 236 248 259 266 261 259 260 254 260 270 275 271 268 273 278 284 292 296 299 293 300 311 319 325 320 320 319 321 329 336 345 351 349 354 358 356 356 355 354 355 358 357 349 342 337 339 342 351 358 2 10 11 13 5 15 18 18 21 20 25 32 40 43 48
202 207 205 211 207 210 217 214 206 214 210 216 219 226 224 222 227 229 227 230 232 240 245 249 253 255 259 267 268 260 265 271 274 272 275 273 276 280 283 286 283 280 286 296 302 296 300 307 315 326 331 335 337 342 348 353 352 357 354 2 360 355 351 342 335 336 348 352 350 357 359 7 13 17 11 11 22 20 22 17 19 20 34 50 46
193 201 200 208 213 217 217 218 208 213 217 216 220 222 232 229 230 225 225 231 238 234 241 247 246 253 255 257 258 265 267 261 270 277 274 276 278 276 275 273 272 274 274 271 271 278 272 272 292 301 306 318 323 327 338 349 355 357 360 2 10 357 360 345 339 347 347 341 344 357 1 3 12 14 15 8 17 19 20 25 23 20 16 30 54
194 199 202 207 215 222 219 210 220 218 228 221 219 223 226 231 229 230 236 226 222 230 236 239 240 246 249 255 254 259 260 264 264 262 267 269 269 264 261 257 256 264 268 271 269 273 279 290 286 288 294 299 310 321 329 334 344 351 355 4 14 2 342 329 347 357 350 338 342 350 0 7 7 9 13 9 10 12 20 22 25 33 27 25 37
195 199 202 204 214 218 216 213 216 218 220 223 220 220 223 225 232 234 233 235 236 235 235 239 243 241 242 247 254 257 254 253 261 265 268 268 261 261 250 251 254 256 265 271 273 270 269 269 271 279 282 289 291 301 312 320 324 338 347 356 7 347 335 347 345 2 325 336 355 353 3 6 5 3 7 10 9 10 16 15 16 25 34 36 31
199 199 207 203 211 220 217 217 221 227 226 226 227 230 223 226 230 234 236 238 238 236 236 233 239 240 242 244 243 246 249 252 256 262 268 272 268 260 253 244 241 251 258 262 268 271 267 269 257 259 266 272 274 279 296 303 306 315 321 355 349 325 333 334 350 5 350 359 347 358 360 2 3 4 5 5 6 11 8 12 6 12 30 34 34
202 205 211 213 217 218 214 213 213 222 222 223 224 230 232 231 233 233 235 234 238 240 239 237 236 231 233 236 239 245 246 249 252 257 259 266 266 261 252 250 249 247 249 248 255 254 252 252 264 263 266 269 273 273 278 285 281 284 293 307 285 302 320 339 347 351 351 334 346 5 5 2 0 2 5 6 359 9 4 360 2 2 11 27 30